Simultaneous Nadir Overpasses (SNOs) Predictions

Prediction of SNOs between AQUA and NOAA-19 Satellite Orbit:

Table of predicted SNOs for the next 14.0 days since TLE Epoch: 7/12/2019
Index Date (AQUA) Time (AQUA) Lat,Lon (AQUA) SZA (AQUA ) Date (NOAA-19) Time (NOAA-19) Lat,Lon (NOAA-19) SZA (NOAA-19 ) Distance(km) Time Diff (sec)
1 07/13/2019 08:39:07 80.37, 16.45 60.37 07/13/2019 08:39:16 80.36, 16.54 60.36 1.80 9
2 07/15/2019 14:12:50 -80.35, 113.17 119.32 07/15/2019 14:12:44 -80.36, 113.18 119.31 0.81 6
3 07/17/2019 19:46:33 80.36,-150.33 61.07 07/17/2019 19:46:06 80.35,-150.21 61.07 2.41 27
4 07/17/2019 20:36:00 -80.36, 17.26 118.92 07/17/2019 20:37:08 -80.37, 17.35 118.95 1.68 68
5 07/20/2019 01:20:16 -80.35, -53.65 118.56 07/20/2019 01:19:33 -80.34, -53.61 118.54 0.67 43
6 07/20/2019 02:09:43 80.37, 113.74 61.50 07/20/2019 02:10:31 80.35, 113.77 61.46 2.52 48
7 07/22/2019 06:53:58 80.33, 43.11 61.84 07/22/2019 06:52:56 80.33, 42.95 61.89 3.09 62
8 07/22/2019 07:43:26 -80.36,-149.60 118.09 07/22/2019 07:43:57 -80.35,-149.50 118.12 2.20 31
9 07/24/2019 13:17:08 80.35, -52.86 62.34 07/24/2019 13:17:20 80.35, -52.78 62.33 1.52 12




NCC Satellite Simultaneous Nadir Overpasses (SNOs) Prediction Service
